User: anonymous   Login
Location: Caltech
(34.1382°N, 118.1253°W)
Time: 07:11:36
(UTC-07:00)
Language:

Iridium 72 - Orbit

View from above orbital plane
View from above orbital plane
View from above satellite
View from above satellite

Ground track
Ground track

The orbit data is extracted from the following two-line orbital elements,

1 25343U 98032B   15210.46525391  .00000200  00000-0  64438-4 0  9994
2 25343 086.4003 151.7838 0002407 084.4302 046.7451 14.34216305900383
Epoch (UTC): 29 July 2015 11:09:57
Eccentricity: 0.0002407
inclination: 86.4003°
perigee height: 776 km
apogee height: 779 km
right ascension of ascending node: 151.7838°
argument of perigee: 84.4302°
revolutions per day: 14.34216305
mean anomaly at epoch: 46.7451°
orbit number at epoch: 90038

The dashed part of the orbit path shows where the satellite is in the earth's shadow,  

DLR